Location: Maiden
(35.5760°N, 81.2120°W)
Time: 03:03:13
(UTC-04:00)

BREEZE-M DEB (TANK) - Pass Details

Date: 02 August 2020
Orbit: 309 x 15750 km, 49.4° (Epoch: 11 August)

Event Time Altitude Azimuth Distance (km) Brightness Sun altitude
Rises 21:27:47 0° 307° (NW) 6,432 9.9 -11.8°
Reaches altitude 10° 21:33:47 10° 307° (NW) 3,774 8.0 -12.8°
Maximum altitude 21:41:01 87° 221° (SW) 598 2.4 -14.0°
Enters shadow 21:42:33 27° 132° (SE) 917 2.9 -14.3°
